User: anonymous   Login
Location: Theydon Bois
(51.6750°N, 0.1050°E)
Time: 21:52:23
(UTC+01:00)
Language:

Cosmos 1626 - Orbit

View from above orbital plane
View from above orbital plane
View from above satellite
View from above satellite

Ground track
Ground track

The orbit data is extracted from the following two-line orbital elements,

1 15494U 85009A   17290.55678601  .00001318  00000-0  55149-4 0  9993
2 15494  82.4774 127.2439 0002547  21.3136 338.8206 15.22699638787394
Epoch (UTC): 17 October 2017 13:21:46
Eccentricity: 0.0002547
inclination: 82.4774°
perigee height: 496 km
apogee height: 499 km
right ascension of ascending node: 127.2439°
argument of perigee: 21.3136°
revolutions per day: 15.22699638
mean anomaly at epoch: 338.8206°
orbit number at epoch: 78739

The dashed part of the orbit path shows where the satellite is in the earth's shadow,  

DLR